When you browse on this site, cookies collect data to enhance your experience and personalize the content and advertising you see.
Visit our Privacy Policy to learn more. By continuing to use the site, you agree to this use of cookies and data.
  • In United Kingdom
  • List of Countries
  • For 7 days
  • Water Temperature
  • Weather Map
  • Weather Widgets
  • user-avatar
    Login

    Hourly Weather São Paulo

    Today, 22 February, Saturday

    Time Temperature Precipitation Wind Pressure Humidity
    00:00 +21°C° 0 mm 2 mps 698 mmHg 87%
    01:00 +21°C° 0 mm 2 mps 697 mmHg 86%
    02:00 +22°C° 0 mm 1 mps 697 mmHg 85%
    03:00 +22°C° 0 mm 1 mps 697 mmHg 85%
    04:00 +22°C° 0 mm 1 mps 697 mmHg 85%
    05:00 +22°C° 0 mm 1 mps 698 mmHg 85%
    06:00 +22°C° 0 mm 1 mps 698 mmHg 86%
    07:00 +21°C° 0.1 mm 2 mps 699 mmHg 83%
    08:00 +23°C° 0.1 mm 2 mps 699 mmHg 80%
    09:00 +24°C° 0.1 mm 3 mps 700 mmHg 77%
    10:00 +24°C° 0.1 mm 3 mps 700 mmHg 75%
    11:00 +23°C° 0.1 mm 4 mps 699 mmHg 74%
    12:00 +23°C° 0.1 mm 4 mps 699 mmHg 73%
    13:00 +22°C° 0 mm 4 mps 699 mmHg 75%
    14:00 +22°C° 0 mm 4 mps 699 mmHg 77%
    15:00 +21°C° 0 mm 4 mps 698 mmHg 78%
    16:00 +21°C° 0.1 mm 4 mps 699 mmHg 80%
    17:00 +21°C° 0.1 mm 4 mps 699 mmHg 81%
    18:00 +20°C° 0.1 mm 4 mps 699 mmHg 82%
    19:00 +20°C° 0 mm 4 mps 699 mmHg 83%
    20:00 +20°C° 0 mm 4 mps 700 mmHg 84%
    21:00 +19°C° 0 mm 4 mps 700 mmHg 85%
    22:00 +19°C° 0 mm 4 mps 700 mmHg 84%
    23:00 +19°C° 0 mm 4 mps 700 mmHg 83%

    Tomorrow, 23 February, Sunday

    Time Temperature Precipitation Wind Pressure Humidity
    00:00 +19°C° 0 mm 4 mps 700 mmHg 83%
    01:00 +19°C° 0 mm 4 mps 700 mmHg 83%
    02:00 +19°C° 0 mm 4 mps 699 mmHg 84%
    03:00 +18°C° 0 mm 3 mps 699 mmHg 85%
    04:00 +18°C° 0 mm 3 mps 699 mmHg 85%
    05:00 +18°C° 0 mm 3 mps 700 mmHg 86%
    06:00 +18°C° 0 mm 3 mps 700 mmHg 86%
    07:00 +19°C° 0 mm 3 mps 700 mmHg 81%
    08:00 +20°C° 0 mm 3 mps 701 mmHg 76%
    09:00 +21°C° 0 mm 3 mps 701 mmHg 72%
    10:00 +22°C° 0 mm 3 mps 701 mmHg 68%
    11:00 +24°C° 0 mm 3 mps 701 mmHg 64%
    12:00 +25°C° 0 mm 3 mps 701 mmHg 60%
    13:00 +25°C° 0 mm 4 mps 701 mmHg 61%
    14:00 +25°C° 0 mm 4 mps 700 mmHg 62%
    15:00 +25°C° 0 mm 4 mps 700 mmHg 63%
    16:00 +23°C° 0 mm 4 mps 700 mmHg 66%
    17:00 +22°C° 0 mm 4 mps 699 mmHg 68%
    18:00 +21°C° 0 mm 4 mps 699 mmHg 71%
    19:00 +20°C° 0 mm 4 mps 699 mmHg 74%
    20:00 +20°C° 0 mm 4 mps 700 mmHg 77%
    21:00 +19°C° 0 mm 3 mps 700 mmHg 80%
    22:00 +19°C° 0 mm 3 mps 700 mmHg 81%
    23:00 +19°C° 0 mm 3 mps 699 mmHg 82%

    Day after tomorrow, 24 February, Monday

    Time Temperature Precipitation Wind Pressure Humidity
    00:00 +18°C° 0 mm 2 mps 699 mmHg 84%
    01:00 +18°C° 0 mm 2 mps 699 mmHg 84%
    02:00 +18°C° 0 mm 2 mps 698 mmHg 85%
    03:00 +18°C° 0 mm 2 mps 698 mmHg 85%
    04:00 +18°C° 0 mm 2 mps 698 mmHg 85%
    05:00 +19°C° 0 mm 2 mps 698 mmHg 85%
    06:00 +19°C° 0 mm 2 mps 698 mmHg 85%
    07:00 +20°C° 0.1 mm 2 mps 699 mmHg 82%
    08:00 +21°C° 0.1 mm 2 mps 699 mmHg 78%
    09:00 +23°C° 0.1 mm 2 mps 699 mmHg 74%
    10:00 +23°C° 0.4 mm 2 mps 699 mmHg 74%
    11:00 +24°C° 0.4 mm 2 mps 699 mmHg 74%
    12:00 +24°C° 0.4 mm 2 mps 699 mmHg 74%
    13:00 +24°C° 0.2 mm 2 mps 699 mmHg 75%
    14:00 +25°C° 0.2 mm 1 mps 698 mmHg 76%
    15:00 +25°C° 0.2 mm 1 mps 698 mmHg 76%
    16:00 +24°C° 0.4 mm 1 mps 698 mmHg 79%
    17:00 +24°C° 0.4 mm 1 mps 697 mmHg 82%
    18:00 +23°C° 0.4 mm 1 mps 697 mmHg 84%
    19:00 +23°C° 0.1 mm 1 mps 698 mmHg 85%
    20:00 +23°C° 0.1 mm 1 mps 698 mmHg 86%
    21:00 +23°C° 0.1 mm 1 mps 698 mmHg 86%
    22:00 +23°C° 0 mm 1 mps 698 mmHg 87%
    23:00 +21°C° 0 mm 2 mps 698 mmHg 88%

    25 February, Tuesday

    Time Temperature Precipitation Wind Pressure Humidity
    00:00 +21°C° 0 mm 2 mps 698 mmHg 88%
    01:00 +21°C° 0 mm 2 mps 697 mmHg 88%
    02:00 +21°C° 0 mm 2 mps 697 mmHg 89%
    03:00 +22°C° 0 mm 1 mps 697 mmHg 89%
    04:00 +22°C° 0.1 mm 1 mps 697 mmHg 88%
    05:00 +21°C° 0.1 mm 2 mps 697 mmHg 87%
    06:00 +21°C° 0.1 mm 2 mps 697 mmHg 86%
    07:00 +23°C° 0.2 mm 2 mps 698 mmHg 83%
    08:00 +24°C° 0.2 mm 3 mps 698 mmHg 79%
    09:00 +25°C° 0.2 mm 4 mps 699 mmHg 76%
    10:00 +26°C° 0 mm 4 mps 699 mmHg 71%
    11:00 +28°C° 0 mm 4 mps 699 mmHg 66%
    12:00 +29°C° 0 mm 4 mps 699 mmHg 61%
    13:00 +29°C° 0.1 mm 4 mps 698 mmHg 61%
    14:00 +29°C° 0.1 mm 4 mps 697 mmHg 61%
    15:00 +29°C° 0.1 mm 4 mps 697 mmHg 60%
    16:00 +29°C° 0.2 mm 3 mps 697 mmHg 64%
    17:00 +28°C° 0.2 mm 2 mps 696 mmHg 68%
    18:00 +27°C° 0.2 mm 2 mps 696 mmHg 72%
    19:00 +27°C° 1.7 mm 1 mps 696 mmHg 74%
    20:00 +26°C° 1.7 mm 1 mps 696 mmHg 77%
    21:00 +26°C° 1.7 mm 1 mps 697 mmHg 79%
    22:00 +25°C° 0.6 mm 2 mps 697 mmHg 80%
    23:00 +25°C° 0.6 mm 2 mps 697 mmHg 80%

    26 February, Wednesday

    Time Temperature Precipitation Wind Pressure Humidity
    00:00 +25°C° 0.6 mm 2 mps 697 mmHg 80%
    01:00 +25°C° 0.3 mm 2 mps 696 mmHg 82%
    02:00 +24°C° 0.3 mm 2 mps 696 mmHg 83%
    03:00 +24°C° 0.3 mm 3 mps 695 mmHg 85%
    04:00 +24°C° 0.2 mm 3 mps 695 mmHg 85%
    05:00 +24°C° 0.2 mm 2 mps 695 mmHg 85%
    06:00 +24°C° 0.2 mm 2 mps 695 mmHg 85%
    07:00 +24°C° 0 mm 3 mps 695 mmHg 85%
    08:00 +24°C° 0 mm 3 mps 695 mmHg 84%
    09:00 +24°C° 0 mm 3 mps 696 mmHg 83%
    10:00 +25°C° 0 mm 4 mps 695 mmHg 80%
    11:00 +26°C° 0 mm 4 mps 695 mmHg 76%
    12:00 +27°C° 0 mm 4 mps 695 mmHg 72%
    13:00 +28°C° 0.1 mm 4 mps 695 mmHg 67%
    14:00 +30°C° 0.1 mm 4 mps 694 mmHg 62%
    15:00 +32°C° 0.1 mm 4 mps 694 mmHg 57%
    16:00 +30°C° 1.3 mm 4 mps 694 mmHg 63%
    17:00 +28°C° 1.3 mm 4 mps 693 mmHg 69%
    18:00 +27°C° 1.3 mm 4 mps 693 mmHg 75%
    19:00 +27°C° 1.4 mm 3 mps 694 mmHg 78%
    20:00 +26°C° 1.4 mm 3 mps 694 mmHg 80%
    21:00 +25°C° 1.4 mm 2 mps 695 mmHg 82%
    22:00 +25°C° 0.8 mm 2 mps 695 mmHg 84%
    23:00 +24°C° 0.8 mm 2 mps 695 mmHg 85%

    27 February, Thursday

    Time Temperature Precipitation Wind Pressure Humidity
    00:00 +24°C° 0.8 mm 2 mps 695 mmHg 87%
    01:00 +24°C° 0.4 mm 2 mps 694 mmHg 87%
    02:00 +22°C° 0.4 mm 3 mps 694 mmHg 86%
    03:00 +22°C° 0.4 mm 3 mps 693 mmHg 85%
    04:00 +22°C° 0.1 mm 3 mps 694 mmHg 84%
    05:00 +21°C° 0.1 mm 2 mps 694 mmHg 83%
    06:00 +21°C° 0.1 mm 2 mps 694 mmHg 82%
    07:00 +21°C° 0.3 mm 2 mps 695 mmHg 83%
    08:00 +22°C° 0.3 mm 3 mps 695 mmHg 84%
    09:00 +22°C° 0.3 mm 3 mps 696 mmHg 85%
    10:00 +22°C° 0.1 mm 3 mps 696 mmHg 84%
    11:00 +22°C° 0.1 mm 3 mps 696 mmHg 83%
    12:00 +22°C° 0.1 mm 3 mps 697 mmHg 82%
    13:00 +22°C° 0.4 mm 4 mps 696 mmHg 83%
    14:00 +21°C° 0.4 mm 4 mps 696 mmHg 84%
    15:00 +21°C° 0.4 mm 4 mps 696 mmHg 85%
    16:00 +21°C° 0.2 mm 4 mps 696 mmHg 86%
    17:00 +20°C° 0.2 mm 4 mps 696 mmHg 87%
    18:00 +20°C° 0.2 mm 4 mps 696 mmHg 88%
    19:00 +20°C° 0.1 mm 4 mps 696 mmHg 88%
    20:00 +20°C° 0.1 mm 4 mps 697 mmHg 88%
    21:00 +20°C° 0.1 mm 4 mps 697 mmHg 87%
    22:00 +20°C° 0 mm 4 mps 697 mmHg 87%
    23:00 +20°C° 0 mm 3 mps 697 mmHg 86%
    Show more